Dades meteomassalio
 
Diari Summary for Octubre 15, 2018 Units:  Metric    English   Both
« Previous Day
Next Day »
Diari Semanal Mensual Anual Personalitzat
  Actual: Maxima: Minima: Mijana:
Temperatura: -11 °C -17.8 °C -11.3 °C -9.4 °C
Rosada: -14.2 °C -17.8 °C -14.4 °C -12.2 °C
Humitat: 68 % Humidity % 50 % 74 %
Velocitat del vent: 0 km/h 0 km/h 0 km/h 0 km/h
Racha vent: 0 km/h 0 km/h - -
Vent:Calm - - North
Pressio: 34235.8 hPa 0 hPa 34114 hPa -
Pluja: 180.34 mm      
Historical Graphs
 
 
Tabular Data for Octubre 15, 2018
Time Temperature Dew Point Pressure Wind Wind Speed Wind Gust Humidity Rainfall Rate (Hourly) solar Conditions
-17.8 °C -17.8 °C 0 hPa Calm     Humidity % 0 mm SolarRadiationWatts/m^2 W/m2 Conditions
00:04 -10.1 °C -10.7 °C 34124.1 hPa Calm     93 % 91.44 mm 0.00 W/m2 RA
00:09 -10.1 °C -10.7 °C 34124.1 hPa Calm     93 % 83.82 mm 0.00 W/m2 CLR
00:14 -10.1 °C -10.7 °C 34127.5 hPa Calm     93 % 76.2 mm 0.00 W/m2 CLR
00:19 -10.1 °C -10.7 °C 34127.5 hPa Calm     93 % 71.12 mm 0.00 W/m2 RA
00:24 -10.1 °C -10.7 °C 34127.5 hPa Calm     93 % 63.5 mm 0.00 W/m2
00:29 -10.4 °C -11 °C 34124.1 hPa Calm     93 % 58.42 mm 0.00 W/m2 RA
00:34 -10.4 °C -11 °C 34124.1 hPa Calm     93 % 50.8 mm 0.00 W/m2 RA
00:39 -10.4 °C -11 °C 34124.1 hPa Calm     93 % 58.42 mm 0.00 W/m2 RA
00:44 -10.4 °C -11 °C 34120.7 hPa Calm     93 % 63.5 mm 0.00 W/m2 RA
00:49 -10.4 °C -11 °C 34120.7 hPa Calm     93 % 58.42 mm 0.00 W/m2
00:54 -10.4 °C -11 °C 34120.7 hPa Calm     93 % 50.8 mm 0.00 W/m2 CLR
00:59 -10.4 °C -11 °C 34124.1 hPa Calm     93 % 45.72 mm 0.00 W/m2 CLR
01:04 -10.4 °C -11 °C 34124.1 hPa Calm     93 % 38.1 mm 0.00 W/m2 CLR
01:09 -10.4 °C -11 °C 34120.7 hPa Calm     93 % 38.1 mm 0.00 W/m2 CLR
01:14 -10.4 °C -11 °C 34124.1 hPa Calm     93 % 38.1 mm 0.00 W/m2 CLR
01:19 -10.4 °C -11.1 °C 34120.7 hPa Calm     92 % 38.1 mm 0.00 W/m2 CLR
01:24 -10.4 °C -11.1 °C 34120.7 hPa Calm     92 % 38.1 mm 0.00 W/m2 CLR
01:29 -10.4 °C -11.1 °C 34120.7 hPa Calm     92 % 33.02 mm 0.00 W/m2 CLR
01:34 -10.4 °C -11.1 °C 34120.7 hPa Calm     92 % 20.32 mm 0.00 W/m2 CLR
01:39 -10.4 °C -11.1 °C 34114 hPa Calm     92 % 12.7 mm 0.00 W/m2 CLR
01:44 -10.4 °C -11.1 °C 34114 hPa Calm     92 % 0 mm 0.00 W/m2 CLR
01:49 -10.4 °C -11.1 °C 34114 hPa Calm     92 % 0 mm 0.00 W/m2 CLR
01:54 -10.4 °C -11.2 °C 34114 hPa Calm     91 % 0 mm 0.00 W/m2 CLR
01:59 -10.4 °C -11.2 °C 34114 hPa Calm     91 % 0 mm 0.00 W/m2 CLR
02:04 -10.4 °C -11.2 °C 34114 hPa Calm     91 % 0 mm 0.00 W/m2 CLR
02:09 -10.4 °C -11.2 °C 34114 hPa Calm     91 % 0 mm 0.00 W/m2 CLR
02:14 -10.4 °C -11.2 °C 34114 hPa Calm     91 % 0 mm 0.00 W/m2 CLR
02:19 -10.4 °C -11.2 °C 34117.3 hPa Calm     91 % 0 mm 0.00 W/m2 CLR
02:24 -10.7 °C -11.5 °C 34117.3 hPa Calm     91 % 0 mm 0.00 W/m2 CLR
02:29 -10.7 °C -11.6 °C 34120.7 hPa Calm     90 % 0 mm 0.00 W/m2 CLR
02:34 -10.7 °C -11.6 °C 34120.7 hPa Calm     90 % 0 mm 0.00 W/m2 CLR
02:39 -10.7 °C -11.6 °C 34127.5 hPa Calm     90 % 0 mm 0.00 W/m2 CLR
02:44 -10.7 °C -11.6 °C 34127.5 hPa Calm     90 % 0 mm 0.00 W/m2 CLR
02:49 -10.7 °C -11.6 °C 34127.5 hPa Calm     90 % 0 mm 0.00 W/m2 CLR
02:54 -10.7 °C -11.5 °C 34130.9 hPa Calm     91 % 0 mm 0.00 W/m2 CLR
02:59 -11 °C -11.8 °C 34124.1 hPa Calm     91 % 7.62 mm 0.00 W/m2 RA
03:04 -11 °C -11.8 °C 34124.1 hPa Calm     91 % 12.7 mm 0.00 W/m2 RA
03:09 -11 °C -11.8 °C 34127.5 hPa Calm     91 % 12.7 mm 0.00 W/m2
03:14 -11 °C -11.7 °C 34124.1 hPa Calm     92 % 12.7 mm 0.00 W/m2 RA
03:19 -11 °C -11.7 °C 34124.1 hPa Calm     92 % 20.32 mm 0.00 W/m2 RA
03:24 -11 °C -11.7 °C 34124.1 hPa Calm     92 % 25.4 mm 0.00 W/m2 RA
03:29 -11 °C -11.7 °C 34124.1 hPa Calm     92 % 38.1 mm 0.00 W/m2 RA
03:34 -11 °C -11.7 °C 34127.5 hPa Calm     92 % 45.72 mm 0.00 W/m2 RA
03:39 -11 °C -11.7 °C 34127.5 hPa Calm     92 % 50.8 mm 0.00 W/m2 RA
03:44 -11 °C -11.7 °C 34127.5 hPa Calm     92 % 58.42 mm 0.00 W/m2 RA
03:49 -11 °C -11.7 °C 34127.5 hPa Calm     92 % 58.42 mm 0.00 W/m2 RA
03:54 -11 °C -11.7 °C 34127.5 hPa Calm     92 % 63.5 mm 0.00 W/m2 RA
03:59 -11 °C -11.7 °C 34127.5 hPa Calm     92 % 63.5 mm 0.00 W/m2 RA
04:04 -11 °C -11.7 °C 34127.5 hPa Calm     92 % 63.5 mm 0.00 W/m2 RA
04:09 -11 °C -11.7 °C 34127.5 hPa Calm     92 % 63.5 mm 0.00 W/m2 CLR
04:14 -11 °C -11.7 °C 34127.5 hPa Calm     92 % 63.5 mm 0.00 W/m2 RA
04:19 -11 °C -11.8 °C 34127.5 hPa Calm     91 % 71.12 mm 0.00 W/m2 RA
04:24 -11 °C -11.8 °C 34127.5 hPa Calm     91 % 71.12 mm 0.00 W/m2 RA
04:29 -11 °C -11.8 °C 34127.5 hPa Calm     91 % 71.12 mm 0.00 W/m2 RA
04:34 -11.3 °C -12.1 °C 34127.5 hPa Calm     91 % 58.42 mm 0.00 W/m2
04:39 -11.3 °C -12.1 °C 34127.5 hPa Calm     91 % 58.42 mm 0.00 W/m2 RA
04:44 -11 °C -11.8 °C 34127.5 hPa Calm     91 % 58.42 mm 0.00 W/m2 RA
04:49 -11.3 °C -12.1 °C 34124.1 hPa Calm     91 % 58.42 mm 0.00 W/m2
04:54 -11.3 °C -12.1 °C 34127.5 hPa Calm     91 % 50.8 mm 0.00 W/m2 CLR
04:59 -11.3 °C -12.2 °C 34127.5 hPa Calm     90 % 50.8 mm 0.00 W/m2 RA
05:04 -11.3 °C -12.2 °C 34127.5 hPa Calm     90 % 45.72 mm 0.00 W/m2 CLR
05:09 -11.3 °C -12.2 °C 34127.5 hPa Calm     90 % 50.8 mm 0.00 W/m2 RA
05:14 -11.3 °C -12.2 °C 34130.9 hPa Calm     90 % 50.8 mm 0.00 W/m2 RA
05:19 -11.3 °C -12.2 °C 34130.9 hPa Calm     90 % 38.1 mm 0.00 W/m2
05:24 -11.3 °C -12.2 °C 34130.9 hPa Calm     90 % 38.1 mm 0.00 W/m2 CLR
05:29 -11.3 °C -12.2 °C 34127.5 hPa Calm     90 % 25.4 mm 0.00 W/m2 CLR
05:34 -11.3 °C -12.2 °C 34130.9 hPa Calm     90 % 25.4 mm 0.00 W/m2 CLR
05:39 -11.3 °C -12.2 °C 34124.1 hPa Calm     90 % 20.32 mm 0.00 W/m2 CLR
05:44 -11.3 °C -12.2 °C 34127.5 hPa Calm     90 % 20.32 mm 0.00 W/m2 RA
05:49 -11.3 °C -12.2 °C 34127.5 hPa Calm     90 % 20.32 mm 0.00 W/m2
05:54 -11.3 °C -12.2 °C 34127.5 hPa Calm     90 % 20.32 mm 0.00 W/m2 CLR
05:59 -11.3 °C -12.2 °C 34127.5 hPa Calm     90 % 12.7 mm 0.00 W/m2 CLR
06:04 -11 °C -11.9 °C 34130.9 hPa Calm     90 % 12.7 mm 0.00 W/m2 CLR
06:09 -11 °C -12 °C 34127.5 hPa Calm     89 % 12.7 mm 0.00 W/m2 CLR
06:14 -11 °C -12 °C 34127.5 hPa Calm     89 % 7.62 mm 0.00 W/m2 CLR
06:19 -11 °C -12.1 °C 34127.5 hPa Calm     88 % 7.62 mm 0.00 W/m2 CLR
06:24 -11 °C -12.1 °C 34127.5 hPa Calm     88 % 7.62 mm 0.00 W/m2 CLR
06:29 -11 °C -12.2 °C 34130.9 hPa Calm     87 % 7.62 mm 0.00 W/m2 CLR
06:34 -11 °C -12.2 °C 34134.3 hPa Calm     87 % 7.62 mm 0.00 W/m2 CLR
06:39 -11 °C -12.3 °C 34137.7 hPa Calm     86 % 7.62 mm 0.00 W/m2 CLR
06:44 -11 °C -12.3 °C 34141 hPa Calm     85 % 0 mm 0.00 W/m2 CLR
06:49 -11 °C -12.3 °C 34144.4 hPa Calm     85 % 0 mm 0.00 W/m2 CLR
06:54 -11 °C -12.3 °C 34147.8 hPa Calm     85 % 0 mm 0.00 W/m2 CLR
06:59 -11 °C -12.4 °C 34147.8 hPa Calm     84 % 0 mm 0.00 W/m2 CLR
07:04 -11 °C -12.4 °C 34147.8 hPa Calm     84 % 0 mm 0.00 W/m2 CLR
07:09 -11 °C -12.4 °C 34151.2 hPa Calm     84 % 0 mm 0.00 W/m2 CLR
07:14 -11 °C -12.4 °C 34151.2 hPa Calm     84 % 0 mm 0.00 W/m2 CLR
07:19 -11 °C -12.4 °C 34154.6 hPa Calm     84 % 0 mm 0.00 W/m2 CLR
07:24 -11 °C -12.4 °C 34154.6 hPa Calm     84 % 0 mm 0.00 W/m2 CLR
07:29 -11 °C -12.4 °C 34158 hPa Calm     84 % 0 mm 0.00 W/m2 CLR
07:34 -11 °C -12.4 °C 34161.4 hPa Calm     84 % 0 mm 0.00 W/m2 CLR
07:39 -11 °C -12.4 °C 34161.4 hPa Calm     84 % 0 mm 0.00 W/m2 CLR
07:44 -11 °C -12.4 °C 34161.4 hPa Calm     84 % 0 mm 0.00 W/m2 CLR
07:49 -11 °C -12.3 °C 34161.4 hPa Calm     85 % 0 mm 0.00 W/m2 CLR
07:54 -11 °C -12.3 °C 34161.4 hPa Calm     85 % 0 mm 0.00 W/m2 CLR
07:59 -11.3 °C -12.7 °C 34161.4 hPa Calm     85 % 0 mm 0.00 W/m2 CLR
08:04 -11.3 °C -12.7 °C 34161.4 hPa Calm     85 % 0 mm 0.00 W/m2 OVC
08:09 -11.3 °C -12.7 °C 34164.7 hPa Calm     85 % 0 mm 0.00 W/m2 OVC
08:14 -11.3 °C -12.7 °C 34161.4 hPa Calm     85 % 0 mm 0.00 W/m2 OVC
08:19 -11.3 °C -12.7 °C 34164.7 hPa Calm     84 % 0 mm 5.00 W/m2 OVC
08:24 -11.3 °C -12.7 °C 34164.7 hPa Calm     84 % 0 mm 9.00 W/m2 BKN
08:29 -11.3 °C -12.7 °C 34164.7 hPa Calm     84 % 0 mm 11.00 W/m2 BKN
08:34 -11.3 °C -12.8 °C 34164.7 hPa Calm     83 % 0 mm 14.00 W/m2 BKN
08:39 -11.3 °C -12.8 °C 34164.7 hPa Calm     83 % 0 mm 18.00 W/m2 BKN
08:44 -11.3 °C -12.8 °C 34168.1 hPa Calm     83 % 0 mm 21.00 W/m2 BKN
08:49 -11.3 °C -12.8 °C 34168.1 hPa Calm     83 % 0 mm 25.00 W/m2 BKN
08:54 -11.3 °C -12.9 °C 34171.5 hPa Calm     82 % 0 mm 26.00 W/m2 BKN
08:59 -11.3 °C -12.8 °C 34174.9 hPa Calm     83 % 0 mm 19.00 W/m2 BKN
09:04 -11.3 °C -12.9 °C 34174.9 hPa Calm     82 % 0 mm 21.00 W/m2 BKN
09:09 -11.3 °C -12.9 °C 34178.3 hPa Calm     82 % 0 mm 23.00 W/m2 BKN
09:14 -11.3 °C -12.9 °C 34178.3 hPa Calm     82 % 0 mm 35.00 W/m2 BKN
09:19 -11.3 °C -12.9 °C 34181.7 hPa Calm     82 % 0 mm 40.00 W/m2 BKN
09:24 -11 °C -12.7 °C 34185.1 hPa Calm     82 % 0 mm 30.00 W/m2 BKN
09:29 -11 °C -12.7 °C 34185.1 hPa Calm     81 % 0 mm 26.00 W/m2 BKN
09:34 -11 °C -12.7 °C 34188.4 hPa Calm     81 % 0 mm 42.00 W/m2 BKN
09:39 -11 °C -12.7 °C 34188.4 hPa Calm     81 % 0 mm 47.00 W/m2 BKN
09:44 -11 °C -12.7 °C 34188.4 hPa Calm     81 % 0 mm 79.00 W/m2 SCT
09:49 -10.7 °C -12.4 °C 34191.8 hPa Calm     81 % 0 mm 95.00 W/m2 FEW
09:54 -10.7 °C -12.6 °C 34191.8 hPa Calm     80 % 0 mm 97.00 W/m2 CLR
09:59 -10.7 °C -12.7 °C 34195.2 hPa Calm     79 % 0 mm 109.00 W/m2 CLR
10:04 -10.4 °C -12.4 °C 34195.2 hPa Calm     78 % 0 mm 120.00 W/m2 CLR
10:09 -10.4 °C -12.4 °C 34198.6 hPa Calm     78 % 0 mm 139.00 W/m2 CLR
10:14 -10.1 °C -12.2 °C 34198.6 hPa Calm     78 % 0 mm 153.00 W/m2 CLR
10:19 -10.1 °C -12.4 °C 34198.6 hPa Calm     76 % 0 mm 167.00 W/m2 CLR
10:24 -10.1 °C -12.3 °C 34202 hPa Calm     77 % 0 mm 169.00 W/m2 CLR
10:29 -10.1 °C -12.4 °C 34205.4 hPa Calm     76 % 0 mm 190.00 W/m2 CLR
10:34 -9.8 °C -12.2 °C 34205.4 hPa Calm     75 % 0 mm 207.00 W/m2 CLR
10:39 -9.8 °C -12.3 °C 34205.4 hPa Calm     74 % 0 mm 236.00 W/m2 CLR
10:44 -9.8 °C -12.4 °C 34202 hPa Calm     73 % 0 mm 248.00 W/m2 CLR
10:49 -9.4 °C -12.1 °C 34202 hPa Calm     73 % 0 mm 246.00 W/m2 CLR
10:54 -9.4 °C -12.2 °C 34205.4 hPa Calm     72 % 0 mm 251.00 W/m2 CLR
10:59 -9.4 °C -12.2 °C 34205.4 hPa Calm     72 % 0 mm 271.00 W/m2 CLR
11:04 -9.4 °C -12.3 °C 34205.4 hPa Calm     71 % 0 mm 230.00 W/m2 CLR
11:09 -9.4 °C -12.2 °C 34208.8 hPa Calm     72 % 0 mm 243.00 W/m2 CLR
11:14 -9.4 °C -12.6 °C 34212.1 hPa Calm     69 % 0 mm 552.00 W/m2 CLR
11:19 -9.4 °C -12.4 °C 34212.1 hPa Calm     70 % 0 mm 269.00 W/m2 CLR
11:24 -9.1 °C -12.2 °C 34212.1 hPa Calm     70 % 0 mm 526.00 W/m2 CLR
11:29 -9.1 °C -12.4 °C 34215.5 hPa Calm     68 % 0 mm 619.00 W/m2 CLR
11:34 -8.8 °C -12.1 °C 34215.5 hPa Calm     68 % 0 mm 649.00 W/m2 CLR
11:39 -8.8 °C -12.2 °C 34212.1 hPa Calm     67 % 0 mm 650.00 W/m2 CLR
11:44 -8.8 °C -12 °C 34212.1 hPa Calm     69 % 0 mm 663.00 W/m2 CLR
11:49 -8.8 °C -12.3 °C 34208.8 hPa Calm     66 % 0 mm 573.00 W/m2 CLR
11:54 -8.5 °C -12.1 °C 34212.1 hPa Calm     66 % 0 mm 622.00 W/m2 CLR
11:59 -8.5 °C -12.1 °C 34208.8 hPa Calm     66 % 0 mm 708.00 W/m2 CLR
12:04 -8.5 °C -11.7 °C 34205.4 hPa Calm     69 % 0 mm 675.00 W/m2 CLR
12:09 -8.5 °C -11.9 °C 34212.1 hPa Calm     67 % 0 mm 712.00 W/m2 CLR
12:14 -8.2 °C -11.8 °C 34212.1 hPa Calm     66 % 0 mm 719.00 W/m2 CLR
12:19 -8.2 °C -12.1 °C 34212.1 hPa Calm     64 % 0 mm 385.00 W/m2 CLR
12:24 -8.2 °C -11.8 °C 34212.1 hPa Calm     66 % 0 mm 434.00 W/m2 CLR
12:29 -8.2 °C -11.9 °C 34212.1 hPa Calm     65 % 0 mm 429.00 W/m2 CLR
12:34 -8.2 °C -12.2 °C 34212.1 hPa Calm     63 % 0 mm 410.00 W/m2 CLR
12:39 -8.2 °C -12.2 °C 34215.5 hPa Calm     63 % 0 mm 432.00 W/m2 CLR
12:44 -7.9 °C -12 °C 34215.5 hPa Calm     62 % 0 mm 499.00 W/m2 CLR
12:49 -8.2 °C -12.1 °C 34215.5 hPa Calm     64 % 0 mm 385.00 W/m2 CLR
12:54 -8.2 °C -12.3 °C 34215.5 hPa Calm     62 % 0 mm 403.00 W/m2 CLR
12:59 -8.2 °C -12.4 °C 34215.5 hPa Calm     61 % 0 mm 360.00 W/m2 CLR
13:04 -8.2 °C -11.9 °C 34215.5 hPa Calm     65 % 0 mm 480.00 W/m2 CLR
13:09 -8.2 °C -12.4 °C 34212.1 hPa Calm     61 % 0 mm 527.00 W/m2 CLR
13:14 -7.9 °C -11.7 °C 34212.1 hPa Calm     64 % 0 mm 659.00 W/m2 CLR
13:19 -7.6 °C -12 °C 34208.8 hPa Calm     60 % 0 mm 749.00 W/m2 CLR
13:24 -7.6 °C -11.8 °C 34205.4 hPa Calm     61 % 0 mm 708.00 W/m2 CLR
13:29 -7.3 °C -11.6 °C 34202 hPa Calm     61 % 0 mm 707.00 W/m2 CLR
13:34 -7.3 °C -11.7 °C 34202 hPa Calm     60 % 0 mm 686.00 W/m2 CLR
13:39 -7.3 °C -11.6 °C 34198.6 hPa Calm     61 % 0 mm 673.00 W/m2 CLR
13:44 -7.3 °C -11.4 °C 34195.2 hPa Calm     62 % 0 mm 684.00 W/m2 CLR
13:49 -7.3 °C -11.4 °C 34195.2 hPa Calm     62 % 0 mm 650.00 W/m2 CLR
13:54 -7 °C -11.3 °C 34195.2 hPa Calm     61 % 0 mm 663.00 W/m2 CLR
13:59 -7 °C -11.7 °C 34195.2 hPa Calm     58 % 0 mm 673.00 W/m2 CLR
14:04 -7 °C -11.6 °C 34191.8 hPa Calm     59 % 0 mm 673.00 W/m2 CLR
14:09 -7.3 °C -12.1 °C 34188.4 hPa Calm     57 % 0 mm 652.00 W/m2 CLR
14:14 -7 °C -11.7 °C 34191.8 hPa Calm     58 % 0 mm 664.00 W/m2 CLR
14:19 -7 °C -11.8 °C 34188.4 hPa Calm     57 % 0 mm 666.00 W/m2 CLR
14:24 -6.7 °C -11.3 °C 34185.1 hPa Calm     59 % 0 mm 670.00 W/m2 CLR
14:29 -6.7 °C -11.3 °C 34181.7 hPa Calm     59 % 0 mm 671.00 W/m2 CLR
14:34 -6.7 °C -11.3 °C 34178.3 hPa Calm     59 % 0 mm 671.00 W/m2 CLR
14:39 -6.7 °C -11.4 °C 34181.7 hPa Calm     58 % 0 mm 666.00 W/m2 CLR
14:44 -6.7 °C -11.4 °C 34181.7 hPa Calm     58 % 0 mm 659.00 W/m2 CLR
14:49 -6.7 °C -11.8 °C 34178.3 hPa Calm     55 % 0 mm 649.00 W/m2 CLR
14:54 -6.7 °C -11.7 °C 34181.7 hPa Calm     56 % 0 mm 642.00 W/m2 CLR
14:59 -6.7 °C -11.7 °C 34178.3 hPa Calm     56 % 0 mm 636.00 W/m2 CLR
15:04 -6.7 °C -12 °C 34178.3 hPa Calm     54 % 0 mm 626.00 W/m2 CLR
15:09 -6.7 °C -11.7 °C 34181.7 hPa Calm     56 % 0 mm 619.00 W/m2 CLR
15:14 -6.3 °C -11.1 °C 34178.3 hPa Calm     58 % 0 mm 610.00 W/m2 CLR
15:19 -6.3 °C -11.4 °C 34178.3 hPa Calm     56 % 0 mm 601.00 W/m2 CLR
15:24 -6.3 °C -11.7 °C 34174.9 hPa Calm     54 % 0 mm 594.00 W/m2 CLR
15:29 -6.3 °C -11.8 °C 34178.3 hPa Calm     53 % 0 mm 585.00 W/m2 CLR
15:34 -6.3 °C -11.4 °C 34174.9 hPa Calm     56 % 0 mm 573.00 W/m2 CLR
15:39 -6.3 °C -11.4 °C 34178.3 hPa Calm     56 % 0 mm 566.00 W/m2 CLR
15:44 -6.3 °C -12.1 °C 34178.3 hPa Calm     52 % 0 mm 555.00 W/m2 CLR
15:49 -6.3 °C -11.6 °C 34178.3 hPa Calm     55 % 0 mm 545.00 W/m2 CLR
15:54 -6.3 °C -11.8 °C 34178.3 hPa Calm     53 % 0 mm 541.00 W/m2 CLR
15:59 -6.3 °C -11.7 °C 34178.3 hPa Calm     54 % 0 mm 533.00 W/m2 CLR
16:04 -6.3 °C -11.7 °C 34178.3 hPa Calm     54 % 0 mm 512.00 W/m2 CLR
16:09 -6.3 °C -11.7 °C 34178.3 hPa Calm     54 % 0 mm 503.00 W/m2 CLR
16:14 -6.3 °C -11.8 °C 34174.9 hPa Calm     53 % 0 mm 492.00 W/m2 CLR
16:19 -6.3 °C -11.8 °C 34174.9 hPa Calm     53 % 0 mm 480.00 W/m2 CLR
16:24 -6.3 °C -12.3 °C 34174.9 hPa Calm     50 % 0 mm 466.00 W/m2 CLR
16:29 -6.3 °C -12.2 °C 34178.3 hPa Calm     51 % 0 mm 455.00 W/m2 CLR
16:34 -6.3 °C -12.2 °C 34178.3 hPa Calm     51 % 0 mm 443.00 W/m2 CLR
16:39 -6.3 °C -12.1 °C 34181.7 hPa Calm     52 % 0 mm 431.00 W/m2 CLR
16:44 -6.3 °C -12.2 °C 34181.7 hPa Calm     51 % 0 mm 417.00 W/m2 CLR
16:49 -6.3 °C -12.2 °C 34185.1 hPa Calm     51 % 0 mm 406.00 W/m2 CLR
16:54 -6.7 °C -12.2 °C 34185.1 hPa Calm     53 % 0 mm 388.00 W/m2 CLR
16:59 -6.3 °C -12.1 °C 34188.4 hPa Calm     52 % 0 mm 376.00 W/m2 CLR
17:04 -6.7 °C -12.3 °C 34188.4 hPa Calm     52 % 0 mm 362.00 W/m2 CLR
17:09 -6.7 °C -12.2 °C 34185.1 hPa Calm     53 % 0 mm 345.00 W/m2 CLR
17:14 -6.7 °C -12.2 °C 34185.1 hPa Calm     53 % 0 mm 332.00 W/m2 CLR
17:19 -6.7 °C -12.3 °C 34185.1 hPa Calm     52 % 0 mm 318.00 W/m2 CLR
17:24 -6.7 °C -12.3 °C 34185.1 hPa Calm     52 % 0 mm 304.00 W/m2 CLR
17:29 -6.7 °C -12.3 °C 34185.1 hPa Calm     52 % 0 mm 288.00 W/m2 CLR
17:34 -7 °C -12.6 °C 34185.1 hPa Calm     52 % 0 mm 271.00 W/m2 CLR
17:39 -7 °C -12.6 °C 34188.4 hPa Calm     52 % 0 mm 255.00 W/m2 CLR
17:44 -7 °C -12.7 °C 34191.8 hPa Calm     51 % 0 mm 241.00 W/m2 CLR
17:49 -7 °C -12.6 °C 34191.8 hPa Calm     52 % 0 mm 221.00 W/m2 CLR
17:54 -7.3 °C -13.2 °C 34191.8 hPa Calm     50 % 0 mm 199.00 W/m2 CLR
17:59 -7.3 °C -13.1 °C 34195.2 hPa Calm     51 % 0 mm 181.00 W/m2 CLR
18:04 -7.3 °C -12.9 °C 34195.2 hPa Calm     52 % 0 mm 163.00 W/m2 CLR
18:09 -7.6 °C -13.2 °C 34195.2 hPa Calm     52 % 0 mm 146.00 W/m2 CLR
18:14 -7.6 °C -13.2 °C 34198.6 hPa Calm     52 % 0 mm 128.00 W/m2 CLR
18:19 -7.6 °C -13.2 °C 34202 hPa Calm     52 % 0 mm 109.00 W/m2 CLR
18:24 -7.9 °C -13.6 °C 34202 hPa Calm     51 % 0 mm 93.00 W/m2 CLR
18:29 -8.2 °C -13.9 °C 34205.4 hPa Calm     51 % 0 mm 42.00 W/m2 SCT
18:34 -8.5 °C -14 °C 34205.4 hPa Calm     52 % 0 mm 44.00 W/m2 SCT
18:39 -8.5 °C -13.8 °C 34205.4 hPa Calm     53 % 0 mm 49.00 W/m2 SCT
18:44 -8.8 °C -14 °C 34208.8 hPa Calm     54 % 0 mm 19.00 W/m2 BKN
18:49 -9.1 °C -14.1 °C 34208.8 hPa Calm     55 % 0 mm 14.00 W/m2 BKN
18:54 -9.4 °C -14.1 °C 34208.8 hPa Calm     57 % 0 mm 12.00 W/m2 BKN
18:59 -9.4 °C -14 °C 34208.8 hPa Calm     58 % 0 mm 11.00 W/m2 BKN
19:04 -9.8 °C -14.2 °C 34215.5 hPa Calm     59 % 0 mm 7.00 W/m2 BKN
19:09 -10.1 °C -14.4 °C 34218.9 hPa Calm     59 % 0 mm 5.00 W/m2 BKN
19:14 -10.1 °C -14.2 °C 34222.3 hPa Calm     61 % 0 mm 5.00 W/m2 OVC
19:19 -10.4 °C -14.3 °C 34222.3 hPa Calm     62 % 0 mm 0.00 W/m2 OVC
19:24 -10.4 °C -13.9 °C 34225.7 hPa Calm     65 % 0 mm 0.00 W/m2 OVC
19:29 -10.4 °C -13.8 °C 34225.7 hPa Calm     66 % 0 mm 0.00 W/m2 OVC
19:34 -10.4 °C -14.1 °C 34229.1 hPa Calm     64 % 0 mm 0.00 W/m2 CLR
19:39 -10.7 °C -14.4 °C 34229.1 hPa Calm     64 % 0 mm 0.00 W/m2 CLR
19:44 -10.7 °C -14 °C 34232.5 hPa Calm     67 % 0 mm 0.00 W/m2 CLR
19:49 -11 °C -14.2 °C 34235.8 hPa Calm     68 % 0 mm 0.00 W/m2 CLR
Lo Temps de Massalio
Compliments of Weather Underground - 1 mb